Voltar ao catálogo

TEMISAT

AtivoCiênciaPO
NORAD 22783·PAYLOAD·🇮🇹 Italy

Lançado Aug 31, 1993 de Plesetsk Cosmodrome

Loading…

Próximas Passagens (próximas 24 horas)

TLE

AtualizadoSource: Space-Track

Época: Sep 14, 2026, 08:21 UTC

1 22783U 93055B   26257.34811997  .00000026  00000-0  99453-5 0  9991
2 22783  82.5495 227.1918 0021957 321.4921  38.4671 13.83900398668040

Acompanhe TEMISAT em tempo real com AllMySat

Download on the App Store